星链-35161(STARLINK-35161)

导读

STARLINK-35161是美国SpaceX公司星链(Starlink)星座的卫星,于2025年10月8日发射,属于星链全球卫星互联网组网计划的组成部分。星链计划旨在为全球偏远地区提供低延迟高速宽带服务,这颗卫星运行在近地轨道,填补星座覆盖盲区,支撑更多用户接入网络,服务包括移动通信、宽带接入等场景,是SpaceX推进巨型星座建设的其中一颗。

Basic Information
目录编号:
65936
目录名称:
STARLINK-35161
国际标识:
2025-225AC
轨道中心:
EARTH
卫星名称:
星链-35161
卫星全名:
星链-35161(STARLINK-35161)
卫星状态:
在轨 (已飞行331 天)
发射日期:
2025-10-08 UTC
国别 :
美国 (US)
星等 :
--
Orbit Information
数据来源 国际轨道数据
星历时间: 2026-09-03T19:12:39+0800
17小时前
查看轨道信息
半长轴: 6840.835km
偏心率: 0.0001607
轨道倾角: 53.160°
近地点辐角 89.468°
升交点赤经 57.293°
平近点角 270.650°
近地点: 461.598km
远地点: 463.798km
周期: 93.848分钟
每日圈数: 15.344018
Detailed Information
固有亮度:
5
最大亮度:
2.5
卫星平台:
Starlink V1.0
覆盖范围:
全球
运营商:
太空探索技术公司
运营商所在国:
美国
制造商(研发单位):
太空探索技术公司
制造商所在国:
美国
使用方式:
暂无
Satellite Introduction
Starlink 计划是 SpaceX 推出的全球卫星互联网项目,通过发射低轨道卫星,为全球尤其是偏远地区提供高速、低延迟的互联网服务。自 2019 年起,Starlink 已部署数千颗卫星,旨在缩小全球数字鸿沟,推动互联网普及。该项目还为军事、航空等行业提供通信支持,带来广泛经济效益。
2D Orbit Map
3D Orbit Map
Orbit Altitude Analysis Chart
Orbit Inclination Analysis Chart
Orbit Comprehensive Analysis Chart
View Comprehensive Chart
Conjunction Data List
Event ID Objects TCA Miss Dist (km) Collision Risk Probability Collision Risk Index (CRI) Action
CDM_260828-030506-593606-666721
2026-08-28T
03:05:07+0000
0.240 km
中距离
6.492594E-4 高风险 0.91
CDM_260827-214806-593606-635521
2026-08-27T
21:48:13+0000
0.700 km
远距离
5.099794E-5 中风险 0.69
CDM_260827-232206-593606-635521
2026-08-27T
23:22:00+0000
0.716 km
远距离
4.768786E-5 中风险 0.69
CDM_260828-005506-593606-635521
2026-08-28T
00:55:48+0000
2.074 km
极远距离
1.624595E-6 低风险 0.39
CDM_260827-201406-593606-635521
2026-08-27T
20:14:26+0000
2.089 km
极远距离
1.597139E-6 低风险 0.39
CDM_260827-231006-593606-666721
2026-08-27T
23:10:28+0000
2.851 km
极远距离
1.36768E-6 低风险 0.38
CDM_260827-232405-362706-593621
2026-08-27T
23:24:18+0000
2.727 km
极远距离
1.115654E-6 低风险 0.36